Theta_e
295 289 287 289 290 290 289 288 286 290 295 291 291 290 293 296 295 294 293 293 294 294 295 296 296 296 296 297 297 298 299 300 301 305 306 306 307 308 310 311 312 312 312 311
290 287 293 294 295 292 290 287 286 291 294 291 290 289 293 295 293 293 293 292 293 293 293 293 293 293 294 294 294 295 296 297 299 300 302 304 304 304 305 305 308 310 309 308
288 292 296 295 292 291 290 288 288 288 289 290 287 286 290 292 293 293 293 293 292 291 291 291 291 291 292 291 291 293 294 295 296 298 299 299 299 299 300 300 301 303 308 307
292 296 294 292 291 292 287 292 291 289 284 282 287 279 287 289 289 290 290 289 289 290 291 291 290 290 290 290 291 291 292 293 295 295 294 293 293 293 295 296 297 298 300 303
291 290 289 290 291 292 289 291 289 287 284 283 284 280 285 289 287 288 288 289 289 289 289 289 290 291 290 290 289 289 290 291 292 293 293 292 291 292 293 294 294 295 296 297
291 293 292 291 293 292 292 289 288 286 284 278 284 283 283 285 288 288 289 289 290 289 289 289 290 290 290 289 289 289 289 289 290 290 290 290 289 289 289 290 290 292 293 294
289 290 291 293 289 290 289 285 280 278 277 278 286 282 287 289 291 289 288 288 288 289 288 288 287 287 288 288 288 289 288 287 288 288 288 289 288 288 288 288 289 289 290 290
286 284 290 292 291 289 286 286 279 272 275 277 283 279 285 289 290 290 290 289 288 287 288 288 287 287 287 287 287 287 287 287 287 287 287 287 288 287 287 287 287 288 288 288
287 285 291 292 292 292 287 284 288 282 272 274 280 284 289 289 288 288 287 286 285 286 285 286 286 285 286 285 286 286 286 286 286 285 286 286 286 286 285 284 284 284 286 287
290 284 290 289 291 289 288 288 281 280 269 267 277 279 281 285 286 286 285 285 286 286 285 286 285 285 285 284 285 285 286 286 285 284 284 286 286 286 285 284 283 283 283 284
291 287 285 289 287 287 285 283 284 285 283 274 271 277 287 288 287 285 286 286 285 285 285 284 284 284 284 284 283 283 283 283 283 283 283 283 284 285 285 283 282 282 282 283
291 288 281 284 290 290 289 287 287 280 277 279 281 280 291 288 287 286 286 286 285 284 283 282 283 283 283 284 283 283 283 282 283 283 282 282 282 283 282 282 281 281 281 282
291 281 273 276 283 286 285 286 287 286 284 277 274 278 287 286 286 288 287 285 284 283 283 282 281 281 281 282 282 282 283 283 282 282 282 282 280 281 281 281 280 280 280 280
294 282 276 273 279 283 280 283 284 283 277 275 277 278 284 285 283 285 282 281 279 279 280 281 281 280 281 281 281 281 281 281 281 281 280 279 279 280 280 281 281 281 280 279
289 278 282 281 281 281 279 280 280 278 279 273 277 278 281 282 282 280 280 279 279 278 279 279 280 280 280 280 280 281 281 281 281 280 280 279 280 280 279 279 279 279 279 279
284 273 277 270 280 280 278 279 279 279 279 278 279 278 283 279 279 276 277 278 277 278 279 280 280 280 279 279 280 280 280 280 280 279 280 281 280 281 282 281 280 280 279 279
279 274 267 264 275 272 267 272 276 277 278 277 274 278 277 277 278 276 276 277 277 278 278 279 279 279 279 279 280 280 280 279 279 279 280 280 281 280 280 281 280 279 279 279
277 271 265 261 262 257 272 277 277 276 276 276 276 275 276 277 277 277 277 277 278 279 279 279 279 279 280 279 279 278 279 278 278 278 278 279 279 278 279 278 278 278 278 278
279 276 263 262 255 267 273 275 274 273 270 273 271 272 276 277 275 274 278 279 279 279 280 279 279 279 278 277 277 277 277 277 276 276 276 276 275 273 273 272 273 274 274 274
276 277 269 254 258 257 269 274 277 275 266 272 273 270 274 275 268 271 278 279 280 279 279 277 276 277 276 275 275 273 272 272 272 272 272 271 270 268 267 268 268 269 269 270
262 262 269 267 258 264 274 275 277 264 268 275 276 273 274 272 274 277 279 278 278 278 276 276 275 274 274 273 272 270 270 268 270 269 268 268 267 265 264 264 264 264 264 265
266 262 260 259 263 261 276 274 270 274 278 279 277 277 276 278 278 278 277 276 275 274 274 274 271 271 271 271 269 267 266 268 267 266 264 263 262 262 262 261 261 261 261 260
267 269 265 268 266 275 276 275 278 279 277 278 277 278 277 277 277 277 275 273 273 272 272 271 268 268 268 268 267 264 265 265 264 261 260 260 260 260 261 259 259 259 260 259
272 274 270 268 273 275 277 278 279 279 278 279 279 278 278 277 276 274 273 272 271 271 269 268 266 265 264 265 265 263 263 263 260 258 259 259 259 259 260 260 260 259 259 259
272 274 270 269 275 276 277 278 279 279 279 278 276 277 276 274 273 272 270 268 269 268 267 265 264 264 263 263 262 261 262 260 258 259 259 259 259 258 258 259 259 260 261 262
276 274 272 269 277 275 276 278 279 278 278 278 275 272 272 272 271 269 268 267 266 265 264 263 262 262 261 261 260 260 260 259 257 257 258 258 258 258 258 258 259 264 266 268
Wind_Speed
3 4 7 11 9 3 4 4 4 6 9 4 7 7 10 16 8 9 9 12 13 14 10 15 17 17 17 18 18 16 16 13 9 5 4 4 3 2 2 2 1 1 2 5
3 6 11 6 5 5 4 3 5 5 4 4 7 11 17 13 4 1 17 11 10 12 15 16 17 16 16 15 16 16 15 15 11 6 4 4 3 3 2 2 4 5 2 4
8 7 5 5 3 5 3 5 4 7 3 5 4 7 9 9 16 18 15 13 13 13 14 14 15 13 13 15 14 14 14 14 13 11 8 5 4 4 5 5 5 6 6 3
6 8 5 4 6 7 6 5 6 4 3 3 3 7 8 9 10 12 9 11 11 12 13 12 11 12 12 10 9 12 13 13 13 13 10 9 5 5 4 3 3 6 8 7
7 5 4 4 7 8 6 3 2 2 3 2 5 2 8 9 5 6 7 10 10 9 9 9 8 9 8 7 8 8 12 13 13 13 13 9 11 6 5 7 9 9 7 8
5 3 5 8 4 4 4 2 4 2 4 0 6 7 4 6 9 7 8 9 10 8 8 7 6 6 7 7 8 10 13 13 12 12 12 12 10 9 9 10 9 9 8 7
2 7 2 3 2 3 4 4 3 4 1 7 4 3 9 4 9 13 13 10 8 7 7 6 7 7 8 9 9 8 9 10 9 8 8 8 7 7 7 7 6 8 8 9
3 5 8 3 5 6 5 7 6 6 3 5 5 4 4 9 16 15 12 9 7 7 6 6 7 7 7 7 7 7 7 7 7 6 6 6 6 4 3 4 3 5 5 6
5 3 3 3 1 5 4 4 3 2 2 4 4 3 4 7 12 12 11 9 7 6 6 6 6 6 6 6 6 7 7 7 8 8 7 7 5 6 5 6 4 3 4 7
4 1 2 2 3 3 2 1 3 3 1 4 3 5 5 8 10 9 7 7 6 6 6 5 5 5 4 4 4 5 4 4 2 3 5 5 7 7 7 8 10 11 9 7
4 5 4 4 4 6 1 0 2 2 4 5 2 6 2 10 12 10 7 7 8 7 6 6 5 5 5 3 3 1 1 2 1 2 2 3 5 6 5 6 6 7 9 11
1 5 3 8 4 3 4 5 6 4 5 2 1 8 6 11 10 8 8 9 7 7 7 6 6 5 4 4 1 1 1 1 2 3 2 3 4 5 5 5 6 6 7 7
6 1 3 9 4 3 4 2 4 3 3 6 3 8 5 7 6 7 6 7 7 7 7 6 5 4 4 3 2 3 3 3 3 2 3 5 6 5 7 8 7 8 8 8
3 3 8 9 4 2 3 4 5 5 2 1 8 8 21 13 5 5 5 5 7 5 1 4 5 6 6 6 5 6 6 5 5 4 5 6 7 7 7 9 9 10 9 9
4 5 2 1 5 2 5 12 4 7 9 8 19 15 21 14 7 4 6 6 6 4 3 1 2 5 7 7 7 7 7 7 7 7 6 8 8 7 7 7 7 9 10 11
3 2 3 4 3 6 12 16 10 14 17 15 18 23 12 2 7 6 6 5 1 4 5 5 4 6 7 7 7 7 8 8 6 7 8 8 7 10 14 12 10 11 12 11
4 6 4 7 3 5 10 11 17 10 8 6 10 11 1 3 6 5 3 2 4 5 3 6 6 6 6 6 6 6 6 6 6 6 7 8 12 14 14 15 15 17 17 15
6 6 4 5 5 3 7 2 4 9 6 6 2 4 6 5 5 4 0 1 3 5 6 7 6 5 6 6 7 6 6 6 8 10 12 11 12 13 14 14 15 17 16 18
3 6 2 5 5 6 12 6 6 5 7 5 5 3 3 4 1 2 2 4 5 6 6 3 5 5 5 5 5 5 8 7 9 11 12 11 10 12 13 14 15 15 16 17
4 3 5 3 6 10 7 3 5 5 7 6 6 5 6 4 1 6 5 5 5 5 5 5 5 3 5 5 6 9 10 10 10 10 10 11 12 12 13 14 17 17 18 20
4 2 16 10 5 9 9 6 5 6 8 4 6 6 6 4 8 7 4 4 3 4 4 5 5 6 5 7 8 10 10 10 10 11 12 13 12 14 15 17 15 16 17 18
8 8 5 3 4 9 7 4 7 6 3 6 5 7 7 8 8 7 4 1 3 4 4 5 5 6 6 6 7 11 12 12 13 13 13 13 13 12 13 15 15 15 15 16
2 9 8 12 9 6 7 7 6 5 6 6 6 9 9 8 7 4 3 1 2 3 3 3 3 8 5 5 7 11 13 14 14 14 14 14 14 13 13 14 15 13 13 13
5 5 5 5 6 9 9 6 7 6 7 8 8 8 6 7 5 3 2 0 2 2 4 5 7 9 10 7 8 8 12 13 13 14 15 15 14 15 14 11 11 12 12 13
9 7 5 3 7 9 9 9 10 10 9 5 3 6 6 6 4 3 3 1 1 4 4 6 7 8 11 11 11 10 11 11 13 14 14 14 12 14 14 13 12 12 14 15
8 10 6 9 14 7 7 7 7 8 8 10 8 5 4 5 5 4 3 1 2 3 6 6 6 8 10 11 12 12 10 9 11 13 12 12 12 12 12 13 13 23 29 32
Wind_Direction
222 119 202 216 205 231 288 242 253 273 280 331 280 297 281 264 286 287 80 87 83 69 52 41 39 34 32 37 34 32 39 20 24 38 65 64 73 32 20 355 30 120 195 205
67 222 230 208 212 209 225 251 268 275 316 349 295 302 280 303 334 2 112 87 78 73 54 42 36 33 35 35 36 35 31 29 24 19 12 54 79 72 88 24 7 332 262 206
178 222 186 198 276 286 274 228 219 241 292 285 302 283 268 64 77 77 77 85 70 68 67 50 41 29 32 36 29 36 33 33 31 25 27 19 24 27 17 4 6 338 307 237
243 242 242 262 232 179 257 239 193 225 82 226 62 288 291 109 78 74 72 74 73 67 64 60 50 43 36 28 31 37 40 37 32 29 41 45 50 33 356 345 337 354 2 321
239 172 164 184 221 158 216 72 194 189 204 34 291 107 294 108 113 117 104 95 87 83 80 73 65 55 37 33 30 32 41 42 33 39 42 43 37 16 354 7 8 359 354 1
230 198 186 207 219 171 143 69 286 125 126 274 245 160 253 185 184 150 128 102 94 81 72 68 62 58 50 37 40 37 40 35 28 30 34 39 36 22 26 13 9 357 350 350
224 222 243 175 124 56 86 72 319 358 15 216 192 138 239 318 121 128 118 103 91 89 77 69 61 49 44 39 34 40 38 36 26 26 26 31 35 34 29 15 7 3 354 348
213 305 156 196 181 183 173 171 154 227 233 255 347 265 360 64 92 103 102 104 93 85 82 72 68 62 56 48 45 45 48 37 20 27 29 23 29 26 29 26 9 357 352 336
188 259 30 52 354 134 193 186 188 148 93 57 216 102 94 97 97 106 112 114 115 107 98 91 81 80 74 64 57 52 43 30 21 14 2 6 17 18 7 8 18 5 329 335
170 203 261 173 103 39 127 201 35 2 222 256 270 249 201 179 151 137 127 121 119 113 104 95 81 85 76 64 71 58 65 93 72 34 353 347 345 352 354 358 354 349 340 331
128 126 243 121 171 181 12 241 217 196 166 185 258 253 230 164 152 149 159 160 163 166 157 143 130 118 116 98 80 134 148 176 166 203 246 360 338 326 334 328 324 327 323 327
115 129 208 227 256 102 198 218 178 165 262 256 145 263 106 129 147 157 179 187 179 168 155 146 158 161 168 174 192 241 277 340 269 278 294 300 297 291 270 264 262 265 274 284
186 116 8 338 17 32 90 130 108 81 107 217 214 256 118 117 155 198 202 203 174 157 156 165 162 181 194 214 234 249 260 254 255 245 254 256 247 248 245 241 240 240 243 246
97 136 166 201 136 110 270 221 113 122 180 248 233 302 291 292 313 215 197 120 128 140 153 214 216 221 225 243 253 265 269 258 262 255 250 258 263 259 262 275 273 272 269 264
110 182 220 283 113 117 231 262 162 199 224 205 271 262 270 298 308 188 135 107 91 51 358 305 254 253 259 262 256 252 249 252 252 260 260 257 256 255 263 272 271 271 277 278
0 198 89 313 265 229 261 262 261 246 254 248 254 265 284 151 97 89 102 94 27 295 293 300 306 293 282 270 261 266 262 257 261 270 273 281 286 293 293 288 283 284 285 274
129 121 82 269 333 41 301 233 226 231 213 201 226 248 103 245 137 127 102 329 300 319 303 283 269 260 266 275 277 281 304 339 326 306 296 295 299 290 289 294 294 293 295 295
140 113 101 216 34 281 248 285 185 211 235 190 188 228 212 191 133 135 148 268 245 265 269 266 263 307 346 14 18 356 348 332 320 309 303 298 294 290 294 294 291 293 295 291
161 141 145 162 196 307 301 248 178 163 271 190 195 240 214 138 72 244 224 235 252 258 275 336 29 23 30 15 350 340 326 320 314 309 306 315 334 325 320 315 312 312 310 302
161 146 144 97 169 207 240 233 143 106 274 221 161 184 154 99 18 260 263 276 297 49 63 27 358 4 12 17 2 336 323 320 312 316 328 321 316 311 309 305 304 300 295 291
99 57 211 213 224 278 244 205 149 103 259 192 166 176 167 182 206 237 257 259 98 82 35 14 2 3 11 352 340 326 320 314 321 317 306 307 310 305 297 295 293 292 291 288
159 155 195 112 211 267 179 84 163 203 144 171 184 201 211 232 254 252 249 58 41 47 20 9 0 351 340 345 337 321 320 324 318 313 310 305 299 294 291 288 288 287 286 285
204 192 179 185 204 216 191 189 215 174 192 207 200 232 219 236 235 193 184 339 9 24 6 40 350 324 334 339 329 320 321 321 320 316 308 302 298 293 288 288 288 288 283 280
274 167 209 85 230 224 221 222 225 219 223 234 219 228 214 216 180 179 164 180 342 32 8 359 336 326 323 334 330 311 316 319 315 308 305 303 300 298 292 286 284 283 282 281
207 155 190 271 264 266 266 241 238 232 237 242 156 178 188 173 178 158 145 160 19 354 352 340 327 321 318 324 320 316 312 309 305 303 302 301 297 297 296 287 285 281 276 276
196 212 208 229 234 196 228 226 212 215 211 198 171 168 147 149 171 151 172 111 42 352 330 322 318 312 309 312 307 307 302 294 292 301 303 299 299 297 295 294 291 287 291 294